Terminal Aerodrome Forecast
Issued by NWS Bismarck, ND

Home | Current Version | Previous Version | Graphics & Text | Print | Product List | Glossary On
Versions: 1 2 3 4 5 6 7 8 9 10 11 12 13 14 15 16
000
FTUS43 KBIS 150500
TAFISN
TAF
KISN 150529Z 1506/1606 13012G18KT P6SM BKN120 OVC250
     FM151200 14014G20KT P6SM BKN100
     FM151500 15016G23KT P6SM BKN070
     FM152300 09014G20KT P6SM VCSH SCT035 BKN050 OVC070
     FM160200 06014KT 3SM -SN SCT025 OVC035=

USA.gov is the U.S. government's official web portal to all federal, state and local government web resources and services.